Le nostre stazioni meteo in Italia

Pubblicità
Il mio iltempo24.it
Venezia Lido, Italia (16101): Temperatura & dewpoint: 18.07.2019 07:00:00 - 24.07.2019 07:00:00 (CEST)Venezia Lido, Italia (16101): velocità del vento: 18.07.2019 07:00:00 - 24.07.2019 07:00:00 (CEST)Venezia Lido, Italia (16101): direzione del vento: 18.07.2019 07:00:00 - 24.07.2019 07:00:00 (CEST)Venezia Lido, Italia (16101): reduced air pressure: 18.07.2019 07:00:00 - 24.07.2019 07:00:00 (CEST)Venezia Lido, Italia (16101): precipitazioni: 18.07.2019 07:00:00 - 24.07.2019 07:00:00 (CEST)
Data & Tempo tt [°C] td [°C] ff [km/h] ff [kn] dd ppp [hPa] rr [mm]
24.07.2019 07:00:00 - - - - - - -
24.07.2019 06:00:00 23,0 19,9 0 0 N 1016,9 -
24.07.2019 05:00:00 23,2 19,7 0 0 N 1016,7 -
24.07.2019 04:00:00 23,8 20,1 0 0 N 1016,9 -
24.07.2019 03:00:00 24,4 20,0 0 0 N 1017,1 -
24.07.2019 02:00:00 25,7 20,9 0 0 N 1017,4 -
24.07.2019 01:00:00 26,6 20,8 0 0 N 1017,5 -
24.07.2019 00:00:00 26,8 20,3 0 0 N 1017,4 -
23.07.2019 23:00:00 27,3 18,8 0 0 N 1017,1 -
23.07.2019 22:00:00 29,2 21,1 0 0 N 1017,0 -
23.07.2019 21:00:00 29,4 23,3 0 0 N 1016,9 -
23.07.2019 20:00:00 30,1 23,0 0 0 N 1017,1 -
23.07.2019 19:00:00 30,7 22,5 0 0 N 1017,1 -
23.07.2019 18:00:00 - - - - - - -
23.07.2019 17:00:00 31,0 23,1 0 0 N 1018,0 -
23.07.2019 16:00:00 30,8 22,6 0 0 N 1018,4 -
23.07.2019 15:00:00 30,9 22,2 0 0 N 1018,8 -
23.07.2019 14:00:00 30,8 21,0 0 0 N 1019,3 -
23.07.2019 13:00:00 30,8 18,2 0 0 N 1019,6 -
23.07.2019 12:00:00 29,9 21,8 0 0 N 1019,8 -
23.07.2019 11:00:00 30,3 23,4 0 0 N 1019,9 -
23.07.2019 10:00:00 28,8 21,0 0 0 N 1020,0 -
23.07.2019 09:00:00 27,1 24,1 0 0 N 1020,1 -
23.07.2019 08:00:00 25,3 23,5 0 0 N 1019,9 -
23.07.2019 07:00:00 23,4 21,8 0 0 N 1019,8 -
23.07.2019 06:00:00 22,0 20,2 0 0 N 1019,8 -
23.07.2019 05:00:00 22,6 20,8 0 0 N 1019,6 -
23.07.2019 04:00:00 23,0 21,2 0 0 N 1019,7 -
23.07.2019 03:00:00 24,1 22,3 0 0 N 1019,9 -
23.07.2019 02:00:00 25,0 23,2 0 0 N 1020,1 -
23.07.2019 01:00:00 - - - - - - -
23.07.2019 00:00:00 - - - - - - -
22.07.2019 23:00:00 25,4 22,2 0 0 N 1020,1 -
22.07.2019 22:00:00 25,8 20,1 0 0 N 1019,9 -
22.07.2019 21:00:00 - - - - - - -
22.07.2019 20:00:00 29,8 20,6 0 0 N 1019,6 -
22.07.2019 19:00:00 31,0 20,9 0 0 N 1019,5 -
22.07.2019 18:00:00 30,8 21,5 0 0 N 1019,9 -
22.07.2019 17:00:00 30,5 20,1 0 0 N 1020,3 -
22.07.2019 16:00:00 31,0 19,6 0 0 N 1020,6 -
22.07.2019 15:00:00 30,1 22,0 0 0 N 1021,0 -
22.07.2019 14:00:00 29,2 21,1 0 0 N 1021,4 -
22.07.2019 13:00:00 30,5 21,3 0 0 N 1021,6 -
22.07.2019 12:00:00 30,5 21,0 0 0 N 1021,8 -
22.07.2019 11:00:00 28,8 20,5 0 0 N 1021,7 -
22.07.2019 10:00:00 27,9 22,3 0 0 N 1021,9 -
22.07.2019 09:00:00 26,2 21,8 0 0 N 1021,7 -
22.07.2019 08:00:00 24,9 20,7 0 0 N 1021,5 -
22.07.2019 07:00:00 23,3 20,4 0 0 N 1021,3 -
22.07.2019 06:00:00 23,4 21,6 0 0 N 1021,2 -
22.07.2019 05:00:00 24,3 22,7 0 0 N 1020,8 -
22.07.2019 04:00:00 24,7 23,1 0 0 N 1020,8 -
22.07.2019 03:00:00 24,7 23,1 0 0 N 1021,0 -
22.07.2019 02:00:00 24,7 22,9 0 0 N 1021,1 -
22.07.2019 01:00:00 24,4 22,6 0 0 N 1021,1 -
22.07.2019 00:00:00 24,6 22,8 0 0 N 1021,1 -
21.07.2019 23:00:00 25,5 23,7 0 0 N 1020,7 -
21.07.2019 22:00:00 26,3 24,5 0 0 N 1019,9 -
21.07.2019 21:00:00 27,0 24,8 0 0 N 1019,2 -
21.07.2019 20:00:00 27,8 25,0 0 0 N 1018,6 -
21.07.2019 19:00:00 27,6 25,0 0 0 N 1018,3 -
21.07.2019 18:00:00 27,6 24,0 0 0 N 1018,4 -
21.07.2019 17:00:00 28,6 24,1 0 0 N 1018,4 -
21.07.2019 16:00:00 29,4 24,9 0 0 N 1018,6 -
21.07.2019 15:00:00 28,5 24,2 0 0 N 1018,8 -
21.07.2019 14:00:00 27,8 24,4 0 0 N 1019,2 -
21.07.2019 13:00:00 27,8 24,8 0 0 N 1019,3 -
21.07.2019 12:00:00 27,7 25,1 0 0 N 1019,2 -
21.07.2019 11:00:00 27,1 24,7 0 0 N 1019,1 -
21.07.2019 10:00:00 26,9 25,1 0 0 N 1019,1 -
21.07.2019 09:00:00 25,3 23,5 0 0 N 1019,0 -
21.07.2019 08:00:00 24,0 22,4 0 0 N 1018,9 -
21.07.2019 07:00:00 23,0 21,4 0 0 N 1018,7 -
21.07.2019 06:00:00 24,1 22,5 0 0 N 1018,2 -
21.07.2019 05:00:00 24,0 22,4 0 0 N 1018,4 -
21.07.2019 04:00:00 24,0 22,4 0 0 N 1018,4 -
21.07.2019 03:00:00 23,8 22,2 0 0 N 1018,9 -
21.07.2019 02:00:00 24,3 22,5 0 0 N 1018,9 -
21.07.2019 01:00:00 24,7 22,9 0 0 N 1019,0 -
21.07.2019 00:00:00 25,5 23,7 0 0 N 1018,4 -
20.07.2019 23:00:00 25,7 23,9 0 0 N 1018,0 -
20.07.2019 22:00:00 25,8 24,0 0 0 N 1017,9 -
20.07.2019 21:00:00 25,8 24,0 0 0 N 1017,0 -
20.07.2019 20:00:00 26,5 24,1 0 0 N 1016,9 -
20.07.2019 19:00:00 - - - - - - -
20.07.2019 18:00:00 27,5 23,7 0 0 N 1017,0 -
20.07.2019 17:00:00 27,5 22,8 0 0 N 1017,5 -
20.07.2019 16:00:00 27,5 21,9 0 0 N 1017,7 -
20.07.2019 15:00:00 27,4 22,5 0 0 N 1018,1 -
20.07.2019 14:00:00 27,2 21,9 0 0 N 1018,4 -
20.07.2019 13:00:00 27,2 22,8 0 0 N 1018,5 -
20.07.2019 12:00:00 26,5 22,5 0 0 N 1018,4 -
20.07.2019 11:00:00 26,5 22,9 0 0 N 1018,2 -
20.07.2019 10:00:00 26,2 23,2 0 0 N 1018,0 -
20.07.2019 09:00:00 24,2 22,4 0 0 N 1017,9 -
20.07.2019 08:00:00 22,5 20,7 0 0 N 1017,4 -
20.07.2019 07:00:00 22,3 20,7 0 0 N 1017,1 -
20.07.2019 06:00:00 21,0 19,2 0 0 N 1016,8 -
20.07.2019 05:00:00 20,8 18,9 0 0 N 1016,8 -
20.07.2019 04:00:00 21,1 19,0 0 0 N 1017,0 -
20.07.2019 03:00:00 22,4 19,9 0 0 N 1017,0 -
20.07.2019 02:00:00 23,0 19,7 0 0 N 1017,0 -
20.07.2019 01:00:00 24,2 19,6 0 0 N 1016,8 -
20.07.2019 00:00:00 25,0 19,5 0 0 N 1016,7 -
19.07.2019 23:00:00 25,1 20,1 0 0 N 1016,4 -
19.07.2019 22:00:00 25,4 20,4 0 0 N 1016,0 -
19.07.2019 21:00:00 25,6 19,4 0 0 N 1015,3 -
19.07.2019 20:00:00 25,9 19,2 0 0 N 1015,2 -
19.07.2019 19:00:00 26,6 18,9 0 0 N 1015,3 -
19.07.2019 18:00:00 - - - - - - -
19.07.2019 17:00:00 27,2 19,2 0 0 N 1015,4 -
19.07.2019 16:00:00 27,2 18,4 0 0 N 1015,6 -
19.07.2019 15:00:00 26,7 19,3 0 0 N 1015,9 -
19.07.2019 14:00:00 26,6 18,1 0 0 N 1016,2 -
19.07.2019 13:00:00 26,2 18,8 0 0 N 1016,4 -
19.07.2019 12:00:00 25,8 18,4 0 0 N 1016,2 -
19.07.2019 11:00:00 26,7 18,2 0 0 N 1016,2 -
19.07.2019 10:00:00 25,4 19,0 0 0 N 1015,9 -
19.07.2019 09:00:00 23,5 18,5 0 0 N 1015,7 -
19.07.2019 08:00:00 22,0 20,0 0 0 N 1015,6 -
19.07.2019 07:00:00 19,5 17,8 0 0 N 1015,1 -
19.07.2019 06:00:00 18,4 16,7 0 0 N 1015,0 -
19.07.2019 05:00:00 19,4 17,7 0 0 N 1014,9 -
19.07.2019 04:00:00 19,2 17,5 0 0 N 1015,1 -
19.07.2019 03:00:00 19,1 17,2 0 0 N 1014,8 -
19.07.2019 02:00:00 20,4 18,5 0 0 N 1014,7 -
19.07.2019 01:00:00 20,1 16,9 0 0 N 1014,6 -
19.07.2019 00:00:00 21,7 17,4 0 0 N 1014,1 -
18.07.2019 23:00:00 23,0 18,9 0 0 N 1013,9 -
18.07.2019 22:00:00 23,1 18,1 0 0 N 1013,4 -
18.07.2019 21:00:00 23,3 17,7 0 0 N 1012,8 -
18.07.2019 20:00:00 25,8 17,6 0 0 N 1012,6 -
18.07.2019 19:00:00 25,2 17,1 0 0 N 1012,1 -
18.07.2019 18:00:00 26,5 14,9 0 0 N 1011,8 -
18.07.2019 17:00:00 24,0 19,7 0 0 N 1012,0 -
18.07.2019 16:00:00 22,4 17,7 0 0 N 1012,5 -
18.07.2019 15:00:00 23,9 15,8 0 0 N 1012,8 -
18.07.2019 14:00:00 26,2 18,8 0 0 N 1012,6 -
18.07.2019 13:00:00 25,9 19,7 0 0 N 1012,6 -
18.07.2019 12:00:00 24,7 18,1 0 0 N 1012,6 -
18.07.2019 11:00:00 23,6 18,0 0 0 N 1012,0 -
18.07.2019 10:00:00 22,5 19,0 0 0 N 1012,0 -
18.07.2019 09:00:00 21,2 19,1 0 0 N 1011,8 -
18.07.2019 08:00:00 21,1 19,0 0 0 N 1011,8 0,0
18.07.2019 07:00:00 21,0 18,1 0 0 N 1011,3 -

tt = Temperatura
td = dewpoint
ff = velocità del vento
dd = direzione del vento
ppp = reduced air pressure
rr = precipitazioni

Stazioni seguenti

WeatherPro
AMSI
MeteoEarth